Location: Eckley Miners' Village
(40.9930°N, 75.8630°W)
Time: 23:40:48
(UTC-04:00)

Vanguard 1 Rocket - Pass Details

Date: 22 March 2026
Orbit: 654 x 4213 km, 34.3° (Epoch: 20 April)

Event Time Altitude Azimuth Distance (km) Brightness Sun altitude
Exits shadow 03:05:09 13° 132° (SE) 3,634 10.4 -40.9°
Drops below altitude 10° 03:06:33 10° 123° (ESE) 3,657 10.5 -40.7°
Sets 03:10:35 0° 100° (E) 4,115 11.1 -40.2°
